N0MR Weather Reports


time (UTC)temp
F
wind
direction
speed
knots
gust
knots
rain 1hr
in
rain 24hr
in
rain mn
in
humidity
%
barometer
mb
20260904054436 58 74 0.0 1.7 0.02 0.39 0.02 96 1012.0
20260904053435 58 24 0.0 0.9 0.14 0.39 0.14 96 1012.4
20260904052436 58 24 0.0 0.9 0.14 0.39 0.14 96 1012.4
20260904051435 58 245 0.0 4.3 0.14 0.39 0.39 95 1012.0
20260904050439 58 245 0.0 4.3 0.14 0.39 0.39 95 1012.0
20260904045435 58 294 0.0 3.5 0.12 0.37 0.37 96 1011.5
20260904044437 58 294 0.0 3.5 0.12 0.37 0.37 96 1011.5
20260904043438 58 345 0.0 2.6 0.00 0.25 0.25 95 1012.0
20260904042435 58 345 0.0 2.6 0.00 0.25 0.25 95 1012.0
20260904041435 59 223 0.0 2.6 0.05 0.25 0.25 95 1012.3
20260904040438 59 223 0.0 2.6 0.05 0.25 0.25 95 1012.3
20260904035438 59 186 0.0 4.3 0.07 0.25 0.25 95 1012.8
20260904034437 59 186 0.0 4.3 0.07 0.25 0.25 95 1012.8
20260904033434 59 248 0.0 1.7 0.14 0.25 0.25 95 1012.7
20260904032437 59 248 0.0 1.7 0.14 0.25 0.25 95 1012.7
20260904031435 59 332 0.0 0.9 0.20 0.20 0.20 94 1013.0
20260904030434 60 331 0.0 2.6 0.18 0.18 0.18 93 1013.4
20260904025438 60 331 0.0 2.6 0.18 0.18 0.18 93 1013.4
20260904024437 60 218 0.0 7.0 0.11 0.11 0.11 91 1014.3
20260904023437 60 218 0.0 7.0 0.11 0.11 0.11 91 1014.3
20260904022438 62 167 0.9 4.3 0.00 0.00 0.00 84 1014.7
20260904021437 62 167 0.9 4.3 0.00 0.00 0.00 84 1014.7
20260904020437 62 313 2.6 7.0 0.00 0.00 0.00 81 1012.1
20260903213633 73 85 0.0 5.2 0.00 0.00 0.00 61 1011.2
20260903212632 73 85 0.0 5.2 0.00 0.00 0.00 61 1011.2
20260903211631 74 184 0.0 5.2 0.00 0.00 0.00 60 1011.1
20260903210633 74 184 0.0 5.2 0.00 0.00 0.00 60 1011.1
20260903205633 74 82 0.0 5.2 0.00 0.00 0.00 61 1011.1
20260903204636 74 82 0.0 5.2 0.00 0.00 0.00 61 1011.1
20260903203635 73 232 2.6 5.2 0.00 0.00 0.00 61 1011.5
20260903202633 73 232 2.6 5.2 0.00 0.00 0.00 61 1011.5
20260903201633 74 339 0.0 5.2 0.00 0.00 0.00 58 1011.8
20260903200636 75 40 0.0 6.1 0.00 0.00 0.00 62 1011.5
20260903195632 75 40 0.0 6.1 0.00 0.00 0.00 62 1011.5
20260903194633 75 124 0.0 2.6 0.00 0.00 0.00 59 1011.6
20260903193636 75 124 0.0 2.6 0.00 0.00 0.00 59 1011.6
20260903192633 75 182 0.0 3.5 0.00 0.00 0.00 60 1011.8
20260903191632 75 182 0.0 3.5 0.00 0.00 0.00 60 1011.8
20260903190643 74 210 0.0 7.8 0.00 0.00 0.00 61 1011.9
20260903185633 74 210 0.0 7.8 0.00 0.00 0.00 61 1011.9
20260903184633 74 113 0.0 4.3 0.00 0.00 0.00 62 1012.3
20260903183632 74 113 0.0 4.3 0.00 0.00 0.00 62 1012.3
20260903182633 74 196 0.0 5.2 0.00 0.00 0.00 60 1012.1
20260903181635 74 196 0.0 5.2 0.00 0.00 0.00 60 1012.1
20260903180633 74 174 0.0 4.3 0.00 0.00 0.00 60 1012.3
20260903175633 74 174 0.0 4.3 0.00 0.00 0.00 60 1012.3
20260903174639 74 217 0.0 4.3 0.00 0.06 0.00 62 1012.3
20260903173634 74 217 0.0 4.3 0.00 0.06 0.00 62 1012.3
20260903172633 74 94 0.0 5.2 0.00 0.06 0.00 62 1012.4
20260903171634 74 94 0.0 5.2 0.00 0.06 0.00 62 1012.4
20260903170637 74 40 0.0 4.3 0.00 0.06 0.00 63 1012.4
20260903165640 73 34 0.0 5.2 0.00 0.06 0.00 65 1012.4
20260903164636 73 34 0.0 5.2 0.00 0.06 0.00 65 1012.4
20260903163636 73 76 0.0 4.3 0.00 0.06 0.00 65 1012.7
20260903162634 73 76 0.0 4.3 0.00 0.06 0.00 65 1012.7
20260903161634 72 102 0.0 2.6 0.00 0.06 0.00 67 1012.9
20260903160637 72 102 0.0 2.6 0.00 0.06 0.00 67 1012.9
20260903155635 70 271 0.0 3.5 0.00 0.06 0.00 71 1013.1
20260903154636 70 271 0.0 3.5 0.00 0.06 0.00 71 1013.1
20260903153635 68 156 0.0 3.5 0.00 0.06 0.00 75 1013.1
20260903152636 68 156 0.0 3.5 0.00 0.06 0.00 75 1013.1
20260903145635 64 284 0.0 3.5 0.00 0.06 0.00 86 1013.4
20260903144636 64 284 0.0 3.5 0.00 0.06 0.00 86 1013.4
20260903143633 62 250 0.0 4.3 0.00 0.06 0.00 90 1013.5
20260903142635 62 250 0.0 4.3 0.00 0.06 0.00 90 1013.5
20260903141634 61 302 0.0 3.5 0.00 0.06 0.00 97 1013.5
20260903140634 61 302 0.0 3.5 0.00 0.06 0.00 97 1013.5
20260903135638 59 234 0.0 0.9 0.00 0.06 0.00 97 1013.6
20260903120639 53 193 0.0 0.0 0.00 0.06 0.00 96 1013.0
20260903115635 53 193 0.0 0.0 0.00 0.06 0.00 96 1013.0